Regional Weather Roundup
Issued by NWS

Home | Current Version | Previous Version | Text Only | Print | Product List | Glossary On
Versions: 1 2 3 4 5 6 7 8 9 10 11 12 13 14 15 16 17 18 19 20 21 22 23 24 25 26 27 28 29 30 31 32 33 34 35 36 37 38 39 40 41 42 43 44 45 46 47 48 49 50
000
ASUS45 KABQ 230910
RWRNM
NEW MEXICO REGIONAL WEATHER ROUNDUP
NATIONAL WEATHER SERVICE ALBUQUERQUE NM
300 AM MDT SAT SEP 23 2017

NOTE: "FAIR" MEANS FEW OR NO CLOUDS BELOW 12,000 FEET AGL WITH NO
       SIGNIFICANT WEATHER OR OBSTRUCTIONS TO VISION.

      THIS PRODUCT IS RELEASED AS TWO VERSIONS.  ONE VERSION NEAR
      THE TOP OF THE HOUR CONTAINING PRELIMINARY DATA FROM ALBUQUERQUE
      AND OTHER STATIONS.  A FINAL VERSION WITH ADDITIONAL DATA IS
      ISSUED ABOUT 10 MINUTES AFTER THE HOUR.

NMZ501-503-504-510>518-231000-
NORTHWEST PLATEAU/NORTHCENTRAL MOUNTAINS

CITY           SKY/WX    TMP DP  RH WIND       PRES   REMARKS
FARMINGTON     FAIR      53  29  39 NE8       29.87F
LOS ALAMOS     FAIR      62  32  32 S9        30.01F
SANTA FE       MOCLDY    63  39  41 S7        29.96F
TAOS           MOCLDY    55  40  56 SE7       30.03F
ANGEL FIRE     FAIR      52  39  61 S13       30.10F

$$
NMZ402-403-502-505>509-231000-
WESTCENTRAL MOUNTAINS/SOUTHWEST MOUNTAINS

CITY           SKY/WX    TMP DP  RH WIND       PRES   REMARKS
GALLUP         FAIR      47  29  49 CALM      29.92F
GRANTS         FAIR      54  40  59 S8        29.96F
SILVER CITY    FAIR      57  44  61 NW5       29.92F

$$
NMZ407-409-411-412-231000-
SOUTHERN DESERTS

CITY           SKY/WX    TMP DP  RH WIND       PRES   REMARKS
DEMING         CLOUDY    69  42  37 SW5       29.85F
LAS CRUCES     FAIR      69  37  31 SW3       29.88S
HOLLOMAN AFB   CLOUDY    77  53  42 SE13      29.86F
ALAMOGORDO     MOCLDY    79  50  36 S14G24    29.86S
T OR C         FAIR      71  40  32 W5        29.85F

$$
NMZ519>523-231000-
CENTRAL VALLEYS/CENTRAL HIGHLANDS

CITY           SKY/WX    TMP DP  RH WIND       PRES   REMARKS
ALBUQUERQUE    CLOUDY    67  44  43 SE6       29.90S
MORIARTY ARPT  FAIR      62  40  45 S7        29.98S
CLINES CORNERS MOCLDY    60  54  80 S16       30.03F
BELEN          MOCLDY    67  34  29 CALM      29.88F
SOCORRO        CLOUDY    67  35  30 S6        29.87R

$$
NMZ524>526-539-540-231000-
SOUTHCENTRAL MOUNTAINS

CITY           SKY/WX    TMP DP  RH WIND       PRES   REMARKS
RUIDOSO        CLOUDY    63  50  63 SE7       30.05S

$$
NMZ527>531-231000-
NORTHEAST HIGHLANDS/NORTHEAST PLAINS

CITY           SKY/WX    TMP DP  RH WIND       PRES   REMARKS
LAS VEGAS      CLOUDY    62  57  83 S17G28    30.02F
RATON          CLOUDY    63  52  67 SW13      29.98S
CLAYTON        FAIR      61  61 100 SE13      29.96R

$$
NMZ532>537-231000-
EASTCENTRAL PLAINS

CITY           SKY/WX    TMP DP  RH WIND       PRES   REMARKS
SANTA ROSA     FAIR      69  60  73 S17G23    29.89F
TUCUMCARI      FAIR      70  62  76 S14       29.88F
CANNON AFB     FAIR      66  66 100 S9        29.94F
CLOVIS AIRPORT FAIR      66  61  84 S10       29.94F

$$
NMZ028-029-538-231000-
SOUTHEAST PLAINS

CITY           SKY/WX    TMP DP  RH WIND       PRES   REMARKS
ROSWELL        MOCLDY    75  62  64 S16       29.86R
ARTESIA        MOCLDY    73  63  68 S10       29.86R
CARLSBAD       FAIR      71  67  87 S8        29.83F
HOBBS          FAIR      72  63  73 S16G24    29.89F


$$




USA.gov is the U.S. government's official web portal to all federal, state and local government web resources and services.